Home > Weather > Arnhem > Past weeks

Flag for Netherlands Past Weather in Arnhem, Netherlands — Yesterday and Last 2 Weeks

Now
63 °F

Passing clouds.


Feels Like: 63 °F
Forecast: 49 / 65 °F
Wind: 6 mph from Northwest

Location: Deelen

Current Time: Jun 27, 2016 at 8:30:41 PM

Latest Report: Jun 27, 2016 at 7:55 PM


Visibility: N/A

Pressure: 30.04 "Hg

Humidity: 68%

Dew Point: 52 °F

Location of ArnhemLocation

Past Weather in Arnhem — Graph

°F

Arnhem Temperature Yesterday

Maximum temperature yesterday: 66 °F (at 4:25 PM)
Minimum temperature yesterday: 50 °F (at 3:25 AM)
Average temperature yesterday: 57 °F

High & Low Weather Summary for the Past Weeks

 TemperatureHumidityPressure
High86 °F (Jun 23, 5:25 PM)100% (Jun 12, 9:55 PM)30.24 "Hg (Jun 12, 9:55 PM)
Low50 °F (Jun 16, 5:55 AM)46% (Jun 16, 1:55 PM)29.45 "Hg (Jun 14, 4:55 PM)
Average61 °F85%29.88 "Hg
* Reported Jun 12 7:25 PM — Jun 27 7:25 PM, Arnhem, Weather by CustomWeather, © 2016

Note: Actual official high and low records may vary slightly from our data, if they occured in-between our weather recording intervals... More about our weather records

Advertising

Arnhem Weather History for the Previous 24 Hours

Scroll right to see more
 ConditionsComfort  
Time TempWeatherWind HumidityBarometerVisibility
7:25 PM
Mon, Jun 27
63 °FBroken clouds.8 mph73%30.04 "HgN/A
6:55 PM63 °FBroken clouds.5 mph83%30.04 "HgN/A
6:25 PM61 °FMostly cloudy.5 mph88%30.04 "HgN/A
5:55 PM61 °FLight rain. Overcast.10 mph88%30.04 "HgN/A
5:25 PM63 °FBroken clouds.6 mph88%30.04 "HgN/A
4:55 PM63 °FOvercast.7 mph94%30.01 "HgN/A
4:25 PM63 °FMostly cloudy.6 mph94%30.01 "HgN/A
3:55 PM63 °FDrizzle. Broken clouds.7 mph94%30.01 "Hg3 mi
3:25 PM61 °FFog.10 mph100%30.01 "Hg3 mi
2:55 PM61 °FMostly cloudy.12 mph94%30.01 "HgN/A
2:25 PM61 °FFog.12 mph94%30.01 "Hg5 mi
1:55 PM59 °FRain. Broken clouds.13 mph100%30.01 "Hg2 mi
1:25 PM61 °FDrizzle. Partly sunny.13 mph88%30.01 "Hg4 mi
12:55 PM61 °FFog.12 mph88%30.01 "Hg4 mi
12:25 PM59 °FMostly cloudy.13 mph88%30.01 "HgN/A
11:55 AM61 °FOvercast.15 mph83%30.01 "HgN/A
11:25 AM61 °FMostly cloudy.13 mph83%30.01 "HgN/A
10:55 AM59 °FOvercast.12 mph88%30.01 "HgN/A
10:25 AM59 °FOvercast.12 mph82%30.01 "HgN/A
9:55 AM59 °FOvercast.10 mph82%30.01 "HgN/A
9:25 AM59 °FMostly cloudy.12 mph82%30.01 "HgN/A
8:55 AM57 °FMore clouds than sun.12 mph88%30.01 "HgN/A
8:25 AM57 °FLow clouds.12 mph88%30.01 "HgN/A
7:55 AM57 °FFog.10 mph88%30.01 "Hg5 mi
7:25 AM55 °FFog.10 mph94%30.01 "Hg5 mi
6:55 AM55 °FFog.9 mph94%30.01 "Hg6 mi
6:25 AM55 °FLow clouds.8 mph94%30.01 "HgN/A
5:55 AM55 °FOvercast.9 mph94%30.01 "HgN/A
5:25 AM55 °FMostly cloudy.9 mph88%30.01 "HgN/A
4:55 AM55 °FMostly cloudy.8 mph88%30.01 "HgN/A
4:25 AM55 °FPassing clouds.8 mph94%30.04 "HgN/A
3:55 AM55 °FFog.7 mph94%30.04 "Hg6 mi
3:25 AM55 °FFog.7 mph94%30.04 "Hg5 mi
2:55 AM55 °FFog.7 mph94%30.04 "Hg5 mi
2:25 AM55 °FFog.7 mph94%30.04 "Hg4 mi
1:55 AM55 °FFog.6 mph94%30.04 "Hg5 mi
1:25 AM54 °FPassing clouds.6 mph94%30.04 "HgN/A
12:55 AM54 °FPassing clouds.5 mph94%30.04 "HgN/A
12:25 AM54 °FPassing clouds.3 mph94%30.04 "HgN/A
11:55 PM
Sun, Jun 26
54 °FPassing clouds.3 mph94%30.04 "HgN/A
11:25 PM55 °FPassing clouds.3 mph88%30.04 "HgN/A
10:55 PM54 °FPassing clouds.6 mph94%30.04 "HgN/A
10:25 PM55 °FPassing clouds.5 mph88%30.04 "HgN/A
9:55 PM57 °FPassing clouds.5 mph82%30.04 "HgN/A
9:25 PM59 °FPassing clouds.8 mph82%30.04 "HgN/A
8:55 PM59 °FPassing clouds.6 mph82%30.01 "HgN/A
8:25 PM61 °FMostly cloudy.8 mph77%30.01 "HgN/A
Weather by CustomWeather, © 2016

See weather overviewHow to use our weather pages